Location: New Plymouth
(39.0670°S, 174.0830°E)
Time: 09:07:42
(UTC+13:00)

STRAND 1 - Pass Details

Date: 03 September 2019
Orbit: 769 x 780 km, 98.5° (Epoch: 13 October)

Event Time Altitude Azimuth Distance (km) Brightness Sun altitude
Rises 19:24:07 0° 4° (N) 3,251 ? -16.6°
Reaches altitude 10° 19:26:26 10° 360° (N) 2,333 ? -17.0°
Maximum altitude 19:31:31 58° 281° (W) 917 ? -18.0°
Drops below altitude 10° 19:36:40 10° 201° (SSW) 2,367 ? -19.0°
Sets 19:39:04 0° 197° (SSW) 3,303 ? -19.5°
